EW1895 Weather Reports


time (UTC)temp
C
wind
direction
speed
KPH
gust
KPH
rain 1hr
cm
rain 24hr
cm
rain mn
cm
humidity
%
barometer
mb
20260903060055 23 170 0.0 0.0 0.00 0.00 0.00 94 1016.7
20260903054554 23 170 0.0 0.0 0.00 0.00 0.00 94 1016.8
20260903053112 23 170 0.0 0.0 0.00 0.00 0.00 93 1016.9
20260903051552 23 170 0.0 0.0 0.00 0.00 0.00 93 1017.3
20260903044600 23 170 0.0 0.0 0.00 0.00 0.00 94 1017.5
20260903043107 23 170 0.0 0.0 0.00 0.00 0.00 94 1017.3
20260903041554 23 170 0.0 0.0 0.00 0.00 0.00 93 1017.1
20260903040053 24 170 0.0 0.0 0.00 0.00 0.00 93 1016.8
20260903034555 24 170 0.0 0.0 0.00 0.00 0.00 93 1016.8
20260903033050 24 170 0.0 0.0 0.00 0.00 0.00 92 1016.7
20260903031606 24 170 0.0 0.0 0.00 0.00 0.00 92 1016.6
20260903030049 24 170 0.0 0.0 0.00 0.00 0.00 92 1016.5
20260903024548 25 170 0.0 0.0 0.00 0.00 0.00 91 1016.9
20260903023047 25 170 0.0 0.0 0.00 0.00 0.00 91 1016.9
20260903021553 25 170 0.0 0.0 0.00 0.00 0.00 90 1016.8
20260903020047 25 170 0.0 0.0 0.00 0.00 0.00 90 1017.2
20260903014556 25 170 0.0 0.0 0.00 0.00 0.00 89 1017.6
20260903013048 26 170 0.0 0.0 0.00 0.00 0.00 88 1017.3
20260903011547 26 170 0.0 0.0 0.00 0.00 0.00 88 1017.2
20260903010046 26 170 0.0 0.0 0.00 0.00 0.00 86 1017.2
20260903004545 26 170 0.0 0.0 0.00 0.00 0.00 85 1017.0
20260903003045 27 170 0.0 0.0 0.00 0.00 0.00 84 1016.9
20260903001550 27 170 0.0 0.0 0.00 0.00 0.00 83 1016.7
20260903000044 28 170 0.0 0.0 0.00 0.00 0.00 82 1016.7
20260902234544 28 170 0.0 0.0 0.00 0.00 0.00 81 1016.9
20260902233044 28 177 0.0 0.0 0.00 0.00 0.00 79 1016.7
20260902231543 28 177 0.0 0.0 0.00 0.00 0.00 79 1017.0
20260902230043 28 176 0.0 6.4 0.00 0.00 0.00 78 1017.5
20260902224544 28 177 0.0 0.0 0.00 0.00 0.00 77 1017.3
20260902223043 29 180 0.0 0.0 0.00 0.00 0.00 77 1017.3
20260902221543 29 180 0.0 0.0 0.00 0.00 0.00 75 1017.2
20260902220046 30 177 0.0 1.6 0.00 0.00 0.00 75 1017.3
20260902214542 30 148 0.0 0.0 0.00 0.00 0.00 73 1016.9
20260902213041 31 110 0.0 1.6 0.00 0.00 0.00 70 1016.9
20260902211548 31 110 0.0 4.8 0.00 0.00 0.00 68 1016.9
20260902210108 32 108 0.0 4.8 0.00 0.00 0.00 65 1017.1
20260902204543 33 327 4.8 17.7 0.00 0.00 0.00 62 1016.6
20260902203040 35 5 0.0 4.8 0.00 0.00 0.00 53 1017.2
20260902201541 36 346 0.0 1.6 0.00 0.00 0.00 52 1017.0
20260902200040 36 74 0.0 9.7 0.00 0.00 0.00 51 1017.3
20260902194542 36 132 0.0 1.6 0.00 0.00 0.00 50 1017.1
20260902193040 36 146 0.0 3.2 0.00 0.00 0.00 52 1016.8
20260902191543 36 105 0.0 1.6 0.00 0.00 0.00 52 1016.9
20260902190041 36 275 0.0 4.8 0.00 0.00 0.00 50 1017.1
20260902184536 37 167 0.0 3.2 0.00 0.00 0.00 50 1017.1
20260902183033 36 103 0.0 3.2 0.00 0.00 0.00 51 1017.3
20260902181531 36 113 0.0 1.6 0.00 0.00 0.00 51 1017.4
20260902180030 36 175 0.0 8.0 0.00 0.00 0.00 51 1017.5
20260902174530 36 346 0.0 1.6 0.00 0.00 0.00 51 1017.7
20260902173029 36 157 0.0 6.4 0.00 0.00 0.00 51 1017.7
20260902171529 36 327 0.0 0.0 0.00 0.00 0.00 53 1017.6
20260902170025 36 336 0.0 0.0 0.00 0.00 0.00 52 1017.7
20260902164522 35 93 0.0 0.0 0.00 0.00 0.00 54 1017.7
20260902163025 35 299 0.0 0.0 0.00 0.00 0.00 51 1017.8
20260902161519 35 298 0.0 0.0 0.00 0.00 0.00 52 1017.8
20260902160017 35 298 0.0 0.0 0.00 0.00 0.00 52 1017.9
20260902154516 35 360 0.0 0.0 0.00 0.00 0.00 54 1018.0
20260902153012 33 319 0.0 0.0 0.00 0.00 0.00 59 1018.0
20260902151517 33 319 0.0 0.0 0.00 0.00 0.00 59 1018.1
20260902150010 33 253 0.0 0.0 0.00 0.00 0.00 59 1018.2
20260902144510 32 253 0.0 0.0 0.00 0.00 0.00 62 1018.1
20260902143103 32 340 0.0 0.0 0.00 0.00 0.00 65 1018.2
20260902141559 31 340 0.0 0.0 0.00 0.00 0.00 65 1018.2
20260902140057 30 340 0.0 0.0 0.00 0.00 0.00 68 1017.9
20260902134549 29 340 0.0 0.0 0.00 0.00 0.00 72 1017.9
20260902133045 27 340 0.0 0.0 0.00 0.00 0.00 81 1017.8
20260902131542 26 340 0.0 0.0 0.00 0.00 0.00 84 1017.7
20260902130039 25 340 0.0 0.0 0.00 0.00 0.00 88 1017.7
20260902124540 24 340 0.0 0.0 0.00 0.00 0.00 89 1017.6
20260902123035 23 340 0.0 0.0 0.00 0.00 0.00 91 1017.6
20260902121536 23 340 0.0 0.0 0.00 0.00 0.00 92 1017.7
20260902120034 22 340 0.0 0.0 0.00 0.00 0.00 92 1017.7
20260902114535 22 340 0.0 0.0 0.00 0.00 0.00 93 1017.7
20260902113033 22 340 0.0 0.0 0.00 0.00 0.00 92 1017.7
20260902111532 22 340 0.0 0.0 0.00 0.00 0.00 92 1017.7
20260902110031 23 340 0.0 0.0 0.00 0.00 0.00 92 1017.6
20260902104538 23 340 0.0 0.0 0.00 0.00 0.00 92 1017.4
20260902103028 23 340 0.0 0.0 0.00 0.00 0.00 92 1017.4
20260902101535 23 340 0.0 0.0 0.00 0.00 0.00 92 1017.3
20260902100027 23 340 0.0 0.0 0.00 0.00 0.00 92 1017.1
20260902094525 23 340 0.0 0.0 0.00 0.00 0.00 92 1017.0
20260902093034 23 340 0.0 0.0 0.00 0.00 0.00 92 1016.9
20260902091526 23 340 0.0 0.0 0.00 0.00 0.00 92 1016.9
20260902090025 23 340 0.0 0.0 0.00 0.00 0.00 92 1016.8
20260902084524 23 340 0.0 0.0 0.00 0.00 0.00 92 1017.0
20260902083023 23 340 0.0 0.0 0.00 0.00 0.00 92 1017.0
20260902081520 23 340 0.0 0.0 0.00 0.00 0.00 91 1017.1
20260902080019 23 340 0.0 0.0 0.00 0.00 0.00 90 1016.7
20260902074518 23 340 0.0 0.0 0.00 0.00 0.00 90 1016.6
20260902073016 23 340 0.0 0.0 0.00 0.00 0.00 88 1016.7
20260902071516 23 340 0.0 0.0 0.00 0.00 0.00 88 1016.7
20260902070015 24 340 0.0 0.0 0.00 0.00 0.00 88 1016.6
20260902064514 24 340 0.0 0.0 0.00 0.00 0.00 88 1016.5
20260902063012 24 340 0.0 0.0 0.00 0.00 0.00 89 1016.5
20260902061520 23 340 0.0 0.0 0.00 0.00 0.00 90 1016.6